Petersburg, AK

5:29 PM AKDT on October 20, 2017 (GMT -0800)
Johnson Petersburg

Weather History for PAPG - June, 2014

Change the Weather History Date:

Saturday, June 28, 2014

  Actual Average Record
Temperature  
Mean Temperature 58 °F -  
Max Temperature 64 °F 59 °F 74 °F (1986)
Min Temperature 53 °F 46 °F 40 °F (1985)
Degree Days  
Heating Degree Days 6    
Growing Degree Days 8 (Base 50)    
Moisture  
Dew Point 50 °F    
Average Humidity 76    
Maximum Humidity 94    
Minimum Humidity 56    
Precipitation  
Precipitation 0.01 in - - ()
Sea Level Pressure  
Sea Level Pressure 29.70 in    
Wind  
Wind Speed 3 mph (ENE)    
Max Wind Speed 9 mph    
Max Gust Speed -    
Visibility 10 miles    
Events Rain    
Averages and records for this station are not official NWS values.
T = Trace of Precipitation, MM = Missing Value Source: NWS Daily Summary

Daily Weather History Graph

Daily Weather History Graph

Search for Another Location

Airport or City:

Trip Planner

Search our weather history database for the weather conditions in past years. The results will help you decide how hot, cold, wet, or windy it might be!

Date:

Astronomy

Jun. 28, 2014 Rise Set
Actual Time 4:01 AM AKDT 9:48 PM AKDT
Civil Twilight 2:55 AM AKDT 10:54 PM AKDT
Nautical Twilight 1:27 AM AKDT 12:22 AM AKDT
Astronomical Twilight Sun does not rise Sun does not rise
Moon 6:02 AM AKDT (6/28) 10:01 PM AKDT (6/28)
Length of Visible Light 19h 58m
Length of Day
17h 46m
New Moon, 2% of the Moon is Illuminated
Jun 28
New Moon
Jul 5
First Quarter
Jul 12
Full
Jul 18
Last Quarter
Jul 26
New

Hourly Weather History & Observations

Time (AKDT) Temp. Dew Point Humidity Pressure Visibility Wind Dir Wind Speed Gust Speed Precip Events Conditions
12:36 AM 57.2 °F 46.4 °F 67% 29.61 in 10.0 mi Calm Calm - N/A   Overcast
12:56 AM 55.4 °F 46.4 °F 72% 29.62 in 10.0 mi Calm Calm - N/A   Mostly Cloudy
1:16 AM 57.2 °F 46.4 °F 67% 29.62 in 10.0 mi WSW 3.5 mph - N/A   Mostly Cloudy
2:16 AM 55.4 °F 48.2 °F 77% 29.64 in 10.0 mi North 4.6 mph - N/A   Overcast
2:36 AM 55.4 °F 50.0 °F 82% 29.64 in 10.0 mi SSW 4.6 mph - N/A   Overcast
3:16 AM 55.4 °F 51.8 °F 88% 29.64 in 10.0 mi Calm Calm - N/A   Overcast
3:36 AM 53.6 °F 51.8 °F 94% 29.64 in 10.0 mi Calm Calm - N/A   Mostly Cloudy
4:16 AM 53.6 °F 51.8 °F 94% 29.64 in 10.0 mi Calm Calm - N/A   Overcast
4:56 AM 53.6 °F 50.0 °F 88% 29.65 in 10.0 mi NNE 3.5 mph - 0.01 in   Overcast
5:16 AM 53.6 °F 50.0 °F 88% 29.65 in 10.0 mi ENE 4.6 mph - N/A   Overcast
5:56 AM 53.6 °F 48.2 °F 82% 29.66 in 10.0 mi East 3.5 mph - N/A   Mostly Cloudy
6:16 AM 53.6 °F 48.2 °F 82% 29.66 in 10.0 mi SE 4.6 mph - N/A   Mostly Cloudy
6:56 AM 55.4 °F 48.2 °F 77% 29.67 in 10.0 mi East 3.5 mph - N/A   Mostly Cloudy
7:16 AM 55.4 °F 51.8 °F 88% 29.67 in 10.0 mi ESE 3.5 mph - N/A   Mostly Cloudy
7:36 AM 57.2 °F 50.0 °F 77% 29.67 in 10.0 mi East 3.5 mph - N/A   Mostly Cloudy
7:56 AM 57.2 °F 51.8 °F 82% 29.67 in 10.0 mi East 4.6 mph - N/A   Mostly Cloudy
8:16 AM 59.0 °F 51.8 °F 77% 29.67 in 10.0 mi ENE 5.8 mph - N/A   Mostly Cloudy
8:36 AM 57.2 °F 48.2 °F 72% 29.68 in 10.0 mi ENE 8.1 mph - N/A   Mostly Cloudy
8:56 AM 57.2 °F 48.2 °F 72% 29.68 in 10.0 mi ENE 8.1 mph - N/A   Mostly Cloudy
9:36 AM 57.2 °F 48.2 °F 72% 29.70 in 10.0 mi East 4.6 mph - N/A   Mostly Cloudy
9:56 AM 57.2 °F 48.2 °F 72% 29.70 in 10.0 mi ENE 4.6 mph - N/A   Overcast
10:16 AM 57.2 °F 48.2 °F 72% 29.70 in 10.0 mi NE 4.6 mph - N/A   Overcast
10:36 AM 60.8 °F 50.0 °F 68% 29.70 in 10.0 mi ENE 5.8 mph - N/A   Overcast
10:56 AM 59.0 °F 50.0 °F 72% 29.70 in 10.0 mi East 4.6 mph - N/A   Overcast
11:16 AM 59.0 °F 50.0 °F 72% 29.71 in 10.0 mi NNE 3.5 mph - N/A   Overcast
11:55 AM 60.8 °F 51.8 °F 72% 29.72 in 10.0 mi North 4.6 mph - N/A   Mostly Cloudy
12:55 PM 62.6 °F 50.0 °F 63% 29.72 in 10.0 mi NNE 9.2 mph - N/A   Overcast
1:55 PM 64.4 °F 48.2 °F 56% 29.73 in 10.0 mi NE 6.9 mph - N/A   Mostly Cloudy
2:55 PM 64.4 °F 51.8 °F 64% 29.74 in 10.0 mi WNW 8.1 mph - N/A   Scattered Clouds
3:55 PM 64.4 °F 50.0 °F 59% 29.75 in 10.0 mi Calm Calm - N/A   Mostly Cloudy
4:55 PM 60.8 °F 53.6 °F 77% 29.77 in 10.0 mi NW 5.8 mph - N/A Rain Light Rain Showers
5:55 PM 57.2 °F 51.8 °F 82% 29.79 in 10.0 mi Calm Calm - N/A Rain Light Rain Showers
6:55 PM 60.8 °F 53.6 °F 77% 29.80 in 10.0 mi East 4.6 mph - N/A   Mostly Cloudy
7:55 PM 60.8 °F 53.6 °F 77% 29.81 in 10.0 mi SW 4.6 mph - N/A   Mostly Cloudy
8:55 PM 59.0 °F 51.8 °F 77% 29.83 in 10.0 mi NNW 3.5 mph - N/A   Mostly Cloudy
9:55 PM 55.4 °F 50.0 °F 82% 29.84 in 10.0 mi Calm Calm - N/A   Mostly Cloudy